Regional Weather Roundup
Issued by NWS

Home | Current Version | Previous Version | Graphics & Text | Print | Product List | Glossary Off
Versions: 1 2 3 4 5 6 7 8 9 10 11 12 13 14 15 16 17 18 19 20 21 22 23 24 25 26 27 28 29 30 31 32 33 34 35 36 37 38 39 40 41 42 43 44 45 46 47 48 49 50

000
ASUS43 KMKX 062311
RWRWI

WISCONSIN REGIONAL WEATHER ROUNDUP
NATIONAL WEATHER SERVICE MILWAUKEE/SULLIVAN WI
600 PM CDT FRI MAY 06 2016

NOTE: "FAIR" INDICATES FEW OR NO CLOUDS BELOW 12,000 FEET WITH NO
SIGNIFICANT WEATHER AND/OR OBSTRUCTIONS TO VISIBILITY.

WIZ001-002-006>008-014>016-023>028-070000-
NORTHWEST WISCONSIN

CITY           SKY/WX    TMP DP  RH WIND       PRES   REMARKS
SUPERIOR ARPT  CLOUDY    74  56  53 W7        29.61F
ASHLAND        CLOUDY    66  57  72 W21G28    29.64R THUNDER HAZE
HAYWARD        CLOUDY    85  47  26 SW9       29.66R HX  82
SIREN          MOSUNNY   89  46  22 W16       29.64F HX  86
CUMBERLAND     SUNNY     86  41  20 SW14G20   29.66S HX  83
RICE LAKE      SUNNY     88  42  19 SW13G20   29.67F HX  85
CHETEK         SUNNY     87  49  27 SW12      29.66F HX  84
LADYSMITH      SUNNY     86  45  24 W13G23    29.69S HX  83
EAU CLAIRE     MOSUNNY   88  43  20 SW13G20   29.66F HX  85
MENOMONIE      SUNNY     89  42  19 S13G21    29.66F HX  85
NEW RICHMOND   SUNNY     86  46  24 SW15G22   29.64F HX  83
OSCEOLA        SUNNY     89  49  25 SW14G23   29.66S HX  86
$$

WIZ003>005-009-010-017-018-070000-
NORTH CENTRAL WISCONSIN

CITY           SKY/WX    TMP DP  RH WIND       PRES   REMARKS
MANITOWISH WTR CLOUDY    82  41  23 W8        29.65F HX  80
ARBOR VITAE    CLOUDY    83  38  20 W12G17    29.67S HX  81
WOODRUFF       CLOUDY    83  38  20 W12G17    29.67S HX  81
RHINELANDER    MOSUNNY   85  39  19 W15G22    29.68F HX  82
EAGLE RIVER      N/A     83  34  17 SW14      29.65F HX  80
LAND O LAKES   CLOUDY    84  32  15 W7        29.66F HX  81
PHILLIPS       MOSUNNY   83  47  27 SW14G21   29.66F HX  81
TOMAHAWK       MOSUNNY   83  39  21 W6        29.68F HX  81
MEDFORD        SUNNY     84  48  29 W10G16    29.70F HX  82
MERRILL        SUNNY     86  46  25 W14G23    29.69F HX  83
$$

WIZ029-030-035-036-043>047-070000-
CENTRAL WISCONSIN

CITY           SKY/WX    TMP DP  RH WIND       PRES   REMARKS
WAUSAU         SUNNY     88  45  22 VRB7      29.67F HX  85
MOSINEE        SUNNY     82  43  24 W14G23    29.72F HX  80
MARSHFIELD     SUNNY     86  43  22 W13       29.70F HX  83
STEVENS POINT  SUNNY     85  40  20 SW14G20   29.71F HX  82
WAUPACA        SUNNY     89  33  13 SW14G21   29.70F HX  85
WAUTOMA        SUNNY     87  39  18 W14G21    29.71F HX  84
WISC RAPIDS    SUNNY     88  35  15 W13       29.72F HX  84
CAMP DOUGLAS   SUNNY     86  43  22 SW12      29.72F HX  83
$$

WIZ011>013-019>022-031-037>040-048>050-070000-
NORTHEAST WISCONSIN

CITY           SKY/WX    TMP DP  RH WIND       PRES   REMARKS
ANTIGO         SUNNY     81  47  30 SW17G23   29.70F HX  80
SHAWANO        SUNNY     89  32  13 W8G16     29.68F HX  85
OCONTO         SUNNY     73  51  46 S13       29.67F
STURGEON BAY   SUNNY     61  41  48 S20       29.73F
GREEN BAY      SUNNY     84  51  31 S12       29.69F HX  82
MANITOWOC      SUNNY     57  41  55 S14       29.76F
APPLETON       MOSUNNY   82  43  24 SW7       29.70F HX  80
CLINTONVILLE   SUNNY     88  32  13 W15       29.68F HX  84
OSHKOSH        SUNNY     85  43  22 SW9       29.71F HX  82
$$

WIZ032>034-041-042-053>061-070000-
SOUTHWEST WISCONSIN

CITY           SKY/WX    TMP DP  RH WIND       PRES   REMARKS
LA CROSSE      SUNNY     89  42  19 W9        29.70F HX  85
SPARTA         SUNNY     86  39  19 W9        29.72F HX  83
VIROQUA        SUNNY     86  33  15 W16       29.77F HX  83
BOSCOBEL       SUNNY     89  38  16 W9G18     29.75F HX  85
PRAIRIE DU CHI SUNNY     87  32  14 W13       29.76S HX  83
PLATTEVILLE    SUNNY     86  40  20 W16       29.79F HX  83
$$

WIZ056-057-062-063-064-067-068-070000-
SOUTH CENTRAL WISCONSIN

CITY           SKY/WX    TMP DP  RH WIND       PRES   REMARKS
REEDSBURG      SUNNY     85  40  20 W15G23    29.74F HX  82
BARABOO/DELLS  SUNNY     86  32  14 W15G21    29.75F HX  83
LONE ROCK      SUNNY     86  38  18 W16G24    29.75F HX  83
MINERAL POINT  SUNNY     86  34  15 W13       29.79F HX  83
MADISON        MOSUNNY   82  48  30 SW5       29.76F HX  81
MIDDLETON      SUNNY     83  45  25 W10G18    29.76F HX  81
WATERTOWN      SUNNY     82  51  34 SW10      29.76F HX  81
MONROE         SUNNY     82  41  23 W18       29.79F HX  80
JANESVILLE     SUNNY     84  46  26 W12       29.78F HX  82
$$

WIZ051-052-058>065-066-070>072-070000-
SOUTHEAST WISCONSIN

CITY           SKY/WX    TMP DP  RH WIND       PRES   REMARKS
MILWAUKEE      MOSUNNY   85  40  20 W12       29.76F HX  82
WAUKESHA       NOT AVBL
MILWAUKEE/TIMM NOT AVBL
RACINE         SUNNY     76  49  38 CALM      29.78F
BURLINGTON     SUNNY     81  45  27 W9G16     29.78F HX  80
KENOSHA        SUNNY     83  47  28 W13       29.77F HX  81
FOND DU LAC    SUNNY     85  45  24 W10       29.73F HX  82
SHEBOYGAN      SUNNY     66  45  46 S6        29.75F
WEST BEND      SUNNY     82  39  21 W9        29.75F HX  80
JUNEAU         SUNNY     82  50  33 SW13G18   29.76F HX  80
$$

LSZ147-162-070000-
LAKE SUPERIOR

STATION/POSITION TIME  TEMP    WIND        PRES    WAVE
                       AIR SEA DIR/SP/G            HT/PER
                 (UTC) (F)     (DEG/KT/KT) (MB)    (FT/S)
W MID LAKE BUOY  2250   60 37  230/ 17/ 21  999.9F   1/ 3
DEVILS ISLAND    2200   77     190/ 13/ 17 1001.4F
PORT WING        2130   67     290/ 12/ 21 1003.0
SAXON HARBOR     2217   88     300/  9/ 25 1002.0F
$$

LMZ867-665-643>646-070000-
LAKE MICHIGAN

STATION/POSITION TIME  TEMP    WIND        PRES    WAVE
                       AIR SEA DIR/SP/G            HT/PER
                 (UTC) (F)     (DEG/KT/KT) (MB)    (FT/S)
CHAMBERS ISLAND  2240   65     140/  8/ 15 1005.4F
N MID LAKE BUOY  2250   45 39  190/ 14/ 16 1006.7F   3/ 5
NORTHPORT PIER   2200   60     180/ 11/ 21 1006.8F
SISTER BAY       2204   63     190/ 20/ 28   N/A
ALGOMA LAKESHORE 2215          210/ 18/ 21   N/A
KEWAUNEE LAKESHO 2200   48                 1007.4F
SHEBOYGAN LAKESH 2300   48     170/ 10/ 11 1008.2F
PORT WASHINGTON  2200   54     180/  5/  7 1009.1F
MILWAUKEE LAKESH 2210   53     160/  4/  5   N/A
S MID LAKE BUOY  2250   50 41  140/ 12/ 14 1008.6F   1/ 3
KENOSHA   LAKESH 2300   62     200/  4/  8 1007.8F
$$

TC  - TEMPERATURE IN CELSIUS
VSB - VISIBILITY IN STATUTE MILES
WCI - WIND CHILL INDEX
HX  - HEAT INDEX





USA.gov is the U.S. government's official web portal to all federal, state and local government web resources and services.